World > North America > United States > Illinois

Hourly Normandale, IL Regional Weather

Feedback E-mail the Weather

Quick WX

Normandale, IL Weather Maps

°F °C°F °C
Normandale Weather Map
UTC Time: 7/3/2022, 23:47
Your Time:

Normandale, IL Regional Weather

Expires:202207040000;;633689
ASUS43 KLOT 032309
RWRIL 

ILLINOIS REGIONAL WEATHER ROUNDUP
NATIONAL WEATHER SERVICE CHICAGO/ROMEOVILLE IL
600 PM CDT SUN JUL 03 2022

NOTE: "FAIR" INDICATES FEW OR NO CLOUDS BELOW 12,000 FEET WITH NO
SIGNIFICANT WEATHER AND/OR OBSTRUCTIONS TO VISIBILITY.

* THESE STATIONS ARE NOT UNDER NWS QUALITY CONTROL. THEY ALSO MAY NOT
  REPORT WEATHER SUCH AS PRECIPITATION OR FOG.


ILZ028>032-037-038-041>044-048-051>054-059>061-040000-
CENTRAL ILLINOIS
  
CITY           SKY/WX    TMP DP  RH WIND       PRES   REMARKS
PONTIAC        SUNNY     86  59  40 SE3       30.10F HX  85           
BLOOMINGTON    SUNNY     85  59  41 E7        30.10F HX  84           
DECATUR        SUNNY     87  61  41 SE7       30.09S HX  87           
PEORIA         SUNNY     86  58  38 SE6       30.08S HX  85           
LINCOLN*       SUNNY     88  61  40 S6        30.07F HX  88           
SPRINGFIELD    SUNNY     86  55  34 E9        30.07S HX  84           
TAYLORVILLE    SUNNY     85  59  41 E6        30.08S HX  85           
$$


SKY/WX - Weather  TMP - Temperature  DP - Dew Point  RH - Humidity
WIND - Wind Direction/Speed PRES - Barometric Pressure VSB - Visibility
WCI - Wind Chill Index E13G22 Wind - East Wind 13 mph/Gusts of 22 mph

Trending Headlines

Normandale Radar Loop



Normandale Quick Facts


National Two Day Weather Forecast


E-mail the Normandale Weather Forecast

Voice your opinion or tell us about page issues...